CW2449 Weather Reports


time (UTC)temp
F
wind
direction
speed
knots
gust
knots
rain 1hr
in
rain 24hr
in
rain mn
in
humidity
%
barometer
mb
20260906123031 76 77 0.9 1.7 0.00 0.00 0.00 100 1013.0
20260906121525 75 78 0.0 3.5 0.00 0.00 0.00 100 1013.0
20260906120012 75 124 0.0 1.7 0.00 0.00 0.00 100 1013.0
20260906114527 75 97 0.0 2.6 0.00 0.00 0.00 100 1012.7
20260906113011 75 93 1.7 5.2 0.00 0.00 0.00 100 1012.5
20260906111600 76 137 0.0 0.0 0.00 0.00 0.00 100 1011.7
20260906110020 76 138 0.0 0.0 0.00 0.00 0.00 100 1011.5
20260906104555 76 138 0.0 0.0 0.00 0.00 0.00 100 1011.4
20260906103044 76 138 0.0 0.0 0.00 0.00 0.00 100 1011.3
20260906101507 76 138 0.0 0.0 0.00 0.00 0.00 100 1011.2
20260906100045 76 138 0.0 0.0 0.00 0.00 0.00 100 1011.2
20260906094637 77 138 0.0 0.0 0.00 0.00 0.00 100 1011.1
20260906093006 77 138 0.0 0.0 0.00 0.00 0.00 100 1011.1
20260906091516 77 138 0.0 0.0 0.00 0.00 0.00 100 1010.9
20260906090052 77 138 0.0 0.0 0.00 0.00 0.00 100 1010.9
20260906084537 78 138 0.0 0.0 0.00 0.00 0.00 100 1011.0
20260906083033 78 138 0.0 0.0 0.00 0.00 0.00 100 1011.0
20260906081545 78 138 0.0 0.0 0.00 0.00 0.00 100 1011.0
20260906080046 79 137 0.0 0.0 0.00 0.00 0.00 100 1011.2
20260906074537 79 137 0.0 0.0 0.00 0.00 0.00 100 1011.3
20260906073042 80 137 0.0 0.0 0.00 0.00 0.00 100 1011.2
20260906071520 80 139 0.9 1.7 0.00 0.00 0.00 100 1011.1
20260906070014 80 139 0.0 0.9 0.00 0.00 0.00 100 1011.0
20260906064505 81 137 0.0 2.6 0.00 0.00 0.00 100 1011.0
20260906063056 81 141 0.9 3.5 0.00 0.00 0.00 100 1011.1
20260906061519 81 148 1.7 5.2 0.00 0.00 0.00 100 1011.2
20260906060028 81 142 0.0 0.0 0.00 0.00 0.00 100 1011.1
20260906054522 81 143 0.0 1.7 0.00 0.00 0.00 100 1011.2
20260906053010 81 143 0.0 1.7 0.00 0.00 0.00 100 1011.4
20260906051602 81 141 0.0 2.6 0.00 0.00 0.00 100 1011.5
20260906050025 81 141 0.0 0.0 0.00 0.00 0.00 100 1011.2
20260906044503 81 141 0.9 2.6 0.00 0.00 0.00 100 1011.2
20260906043002 82 141 0.0 0.9 0.00 0.00 0.00 100 1011.4
20260906041504 82 141 0.9 2.6 0.00 0.00 0.00 100 1011.4
20260906040032 82 141 1.7 3.5 0.00 0.00 0.00 100 1011.3
20260906034559 82 141 1.7 3.5 0.00 0.00 0.00 100 1011.4
20260906033100 82 115 0.0 2.6 0.00 0.00 0.00 100 1011.4
20260906033002 82 115 0.9 2.6 0.00 0.00 0.00 100 1011.4
20260906031534 82 72 0.0 0.0 0.00 0.00 0.00 100 1011.1
20260906030005 82 72 0.0 0.0 0.00 0.00 0.00 100 1011.0
20260906024602 82 72 0.0 0.0 0.00 0.00 0.00 100 1011.0
20260906024501 82 72 0.0 0.0 0.00 0.00 0.00 100 1011.0
20260906023003 82 72 0.0 0.0 0.00 0.00 0.00 100 1010.7
20260906021604 83 72 0.0 0.0 0.00 0.00 0.00 100 1010.6
20260906020049 83 72 0.0 0.0 0.00 0.00 0.00 100 1010.4
20260906014551 83 72 0.0 0.0 0.00 0.00 0.00 100 1010.2
20260906013100 83 72 0.0 0.0 0.00 0.00 0.00 100 1010.1
20260906013002 83 72 0.0 0.0 0.00 0.00 0.00 100 1010.1
20260906011516 84 72 0.0 0.0 0.00 0.00 0.00 100 1010.0
20260906010001 85 72 0.0 0.0 0.00 0.00 0.00 100 1009.8
20260906004507 86 72 0.0 0.0 0.00 0.00 0.00 18 1009.7
20260906003021 88 72 0.0 0.0 0.00 0.00 0.00 29 1009.6
20260906001506 90 72 0.0 0.0 0.00 0.00 0.00 37 1009.5
20260906000021 94 72 0.0 0.0 0.00 0.00 0.00 43 1009.6
20260905234514 96 72 0.0 0.0 0.00 0.00 0.00 44 1009.6
20260905233011 97 72 0.0 0.0 0.00 0.00 0.00 43 1009.7
20260905231559 98 72 0.0 0.0 0.00 0.00 0.00 43 1009.5
20260905230012 99 74 0.0 1.7 0.00 0.00 0.00 43 1009.4
20260905224510 98 104 0.0 2.6 0.00 0.00 0.00 43 1009.5
20260905223037 97 105 0.0 0.9 0.00 0.00 0.00 44 1009.4
20260905221543 97 105 0.0 0.9 0.00 0.00 0.00 43 1009.5
20260905220034 98 105 2.6 5.2 0.00 0.00 0.00 43 1009.7
20260905214557 99 131 0.9 6.1 0.00 0.00 0.00 41 1009.7
20260905213109 99 75 0.9 6.1 0.00 0.00 0.00 40 1009.8
20260905211549 100 97 1.7 5.2 0.00 0.00 0.00 42 1009.9
20260905210105 99 146 3.5 7.8 0.00 0.00 0.00 41 1010.0
20260905204603 98 106 3.5 6.1 0.00 0.00 0.00 41 1010.2
20260905203004 98 93 2.6 8.7 0.00 0.00 0.00 42 1010.5
20260905201608 99 97 2.6 7.8 0.00 0.00 0.00 42 1010.6
20260905201503 99 107 4.3 7.8 0.00 0.00 0.00 42 1010.6
20260905200120 99 96 2.6 7.0 0.00 0.00 0.00 41 1010.8
20260905194517 99 79 0.9 7.8 0.00 0.00 0.00 42 1011.0
20260905193011 99 101 2.6 5.2 0.00 0.00 0.00 39 1011.3
20260905191531 99 148 2.6 6.1 0.00 0.00 0.00 41 1011.4
20260905190057 99 95 1.7 3.5 0.00 0.00 0.00 41 1011.6
20260905184509 98 74 1.7 7.8 0.00 0.00 0.00 43 1011.9
20260905183047 98 73 0.9 5.2 0.00 0.00 0.00 42 1012.0
20260905181507 97 103 0.9 9.6 0.00 0.00 0.00 42 1012.3
20260905180030 97 93 3.5 7.8 0.00 0.00 0.00 42 1012.5
20260905174513 96 127 0.0 4.3 0.00 0.00 0.00 42 1012.6
20260905173017 97 99 3.5 7.0 0.00 0.00 0.00 41 1012.7
20260905171536 97 87 1.7 3.5 0.00 0.00 0.00 41 1012.9
20260905170027 96 94 0.9 4.3 0.00 0.00 0.00 41 1013.0
20260905164551 95 108 1.7 5.2 0.00 0.00 0.00 39 1013.2
20260905163009 94 147 0.9 6.1 0.00 0.00 0.00 37 1013.3
20260905161507 93 149 0.9 7.0 0.00 0.00 0.00 34 1013.6
20260905160024 92 137 0.9 5.2 0.00 0.00 0.00 26 1013.9
20260905154511 92 78 1.7 4.3 0.00 0.00 0.00 21 1013.9
20260905153001 91 146 1.7 4.3 0.00 0.00 0.00 13 1014.0
20260905151543 89 91 0.9 3.5 0.00 0.00 0.00 100 1013.8
20260905150049 87 80 1.7 5.2 0.00 0.00 0.00 100 1013.9
20260905144505 86 78 0.0 2.6 0.00 0.00 0.00 100 1013.9
20260905143015 85 81 0.9 2.6 0.00 0.00 0.00 100 1013.9
20260905141517 85 105 0.9 2.6 0.00 0.00 0.00 100 1013.9
20260905140043 84 87 0.0 0.0 0.00 0.00 0.00 100 1014.0
20260905134515 82 104 0.0 0.0 0.00 0.00 0.00 100 1014.0
20260905130038 77 88 0.0 0.9 0.00 0.00 0.00 100 1014.1
20260905124559 76 88 0.0 0.0 0.00 0.00 0.00 100 1014.1
20260905124500 76 88 0.0 0.0 0.00 0.00 0.00 100 1014.1